Regional Weather Roundup
Issued by NWS

Home | Current Version | Previous Version | Text Only | Print | Product List | Glossary On
Versions: 1 2 3 4 5 6 7 8 9 10 11 12 13 14 15 16 17 18 19 20 21 22 23 24 25 26 27
000
ASUS44 KLIX 271211
RWRLA
LOUISIANA WEATHER ROUNDUP
NATIONAL WEATHER SERVICE NEW ORLEANS LA
700 AM CDT SAT AUG 27 2016

NOTE: "FAIR" INDICATES FEW OR NO CLOUDS BELOW 12,000 FEET WITH NO
      SIGNIFICANT WEATHER AND/OR OBSTRUCTIONS TO VISIBILITY.
      SKY/WX - SKY CONDITION AND SIGNIFICANT WEATHER.
      TMP - AIR TEMPERATURE.    DP   - DEWPOINT TEMPERATURE.
      RH  - RELATIVE HUMIDITY.  PRES - PRESSURE.
      HX  - HEAT INDEX.         WCI  - WIND CHILL INDEX.

*  THESE STATIONS ARE NOT NWS OR FAA STATIONS AND ARE NOT UNDER
   NWS QUALITY CONTROL.

LAZ040-048-061>063-065-066-069-271300-
SOUTHEAST LOUISIANA

CITY           SKY/WX    TMP DP  RH WIND       PRES   REMARKS
N.O. AUDUBON     N/A     79  76  89 MISG        N/A
6HR MIN TEMP:  78; 6HR MAX TEMP:  80;

N.O. INTL ARPT CLOUDY    81  75  82 E3        29.96R
6HR MIN TEMP:  79; 6HR MAX TEMP:  83; 6HR PCP:  0.03;

N.O. LAKEFRONT CLOUDY    82  75  79 E17       29.96S
6HR MIN TEMP:  81; 6HR MAX TEMP:  83;

N.O. DOWNTOWN* FAIR      81  74  79 NE7       29.97R
6HR MIN TEMP:  80; 6HR MAX TEMP:  83;

RESERVE*       LGT RAIN  77  75  93 N5        29.96S
6HR MIN TEMP:  76; 6HR MAX TEMP:  80; 6HR PCP:  0.09;

SLIDELL        CLOUDY    75  74  96 CALM      29.97R
6HR MIN TEMP:  74; 6HR MAX TEMP:  77; 6HR PCP:  0.01;

BATON ROUGE    CLEAR     75  74  96 NE5       29.97R
6HR MIN TEMP:  75; 6HR MAX TEMP:  76;

BOOTHVILLE     CLOUDY    80  75  84 CALM      29.95S
6HR MIN TEMP:  78; 6HR MAX TEMP:  81; 6HR PCP:  0.02;

BELLE CHASSE   CLOUDY    77  76  96 NE5       29.95S
6HR MIN TEMP:  74; 6HR MAX TEMP:  77; 6HR PCP: TRACE;

BOGALUSA*      FAIR      74  71  90 CALM      30.00S FOG
6HR MIN TEMP:  73; 6HR MAX TEMP:  76;

GALLIANO*      CLOUDY   N/A N/A N/A NE3       29.95R
NEW ROADS*     FAIR      74  73  98 CALM      29.98R
6HR MIN TEMP:  73; 6HR MAX TEMP:  75;

GONZALES*      FAIR      75  73  91 N3        29.95F
6HR MIN TEMP:  74; 6HR MAX TEMP:  77;

HAMMOND*       PTCLDY    73  70  88 CALM      29.98R
HOUMA*         MOCLDY    75  73  94 CALM      29.95F
PORT FOURCHON* SUNNY     81  75  83 E6        29.94S

$$

LAZ041-044-053-054-271300-
SOUTHWEST LOUISIANA

CITY           SKY/WX    TMP DP  RH WIND       PRES   REMARKS
LAKE CHARLES   LGT RAIN  77  76  96 E6        29.97R
6HR MIN TEMP:  77; 6HR MAX TEMP:  79; 6HR PCP:  0.01;

LAFAYETTE      CLOUDY    78  75  90 CALM      29.96R
6HR MIN TEMP:  78; 6HR MAX TEMP:  79;

PATTERSON      CLOUDY    77  76  96 SE7       29.97R
6HR MIN TEMP:  75; 6HR MAX TEMP:  77;

SALT POINT       N/A     78  75  90 SE6       29.96R
6HR MIN TEMP:  77; 6HR MAX TEMP:  78;

NEW IBERIA     CLOUDY    78  75  90 NE3       29.97R
6HR MIN TEMP:  78; 6HR MAX TEMP:  80;

CHENAULT AIRPK CLEAR     75  73  94 CALM      29.97R

$$

LAZ027-028-271300-
CENTRAL LOUISIANA

CITY           SKY/WX    TMP DP  RH WIND       PRES   REMARKS
FORT POLK      CLOUDY    75  74  96 N2        29.99R
6HR MIN TEMP:  75; 6HR MAX TEMP:  77;

ALEXANDRIA INT CLOUDY    74  74 100 CALM      29.98R FOG
6HR MIN TEMP:  74; 6HR MAX TEMP:  76;

ALEXANDRIA     PTCLDY    73  73 100 CALM      29.99R FOG
6HR MIN TEMP:  73; 6HR MAX TEMP:  75;


$$

LAZ001-002-271300-
NORTHWEST LOUISIANA

CITY           SKY/WX    TMP DP  RH WIND       PRES   REMARKS
SHREVEPORT     PTCLDY    74  74 100 CALM      30.01R
6HR MIN TEMP:  74; 6HR MAX TEMP:  76;

BARKSDALE AFB  PTCLDY    73  73 100 CALM      30.01R
6HR MIN TEMP:  73; 6HR MAX TEMP:  75;

DTN SHREVEPORT CLEAR     74  72  93 CALM      30.01R FOG
6HR MIN TEMP:  74; 6HR MAX TEMP:  77;


$$

LAZ014-016-271300-
NORTHEAST LOUISIANA

CITY           SKY/WX    TMP DP  RH WIND       PRES   REMARKS
MONROE         CLEAR     72  72 100 CALM      30.02R
6HR MIN TEMP:  71; 6HR MAX TEMP:  75;

TALLULAH       CLEAR     74  72  93 CALM      30.00R FOG
6HR MIN TEMP:  73; 6HR MAX TEMP:  76;


$$





USA.gov is the U.S. government's official web portal to all federal, state and local government web resources and services.